CAPE
0 0 1 2 2 2 3 3 4 3 5 5 4 2 1 2 2 3 0 0 0 0 0 0 0 0 0 0 0 0 0 0 0 0 0 0 0 0 0 0 0 0 1 0 0 0 3 10 198 307 104 1 18 235
2 3 2 2 2 2 3 5 5 4 4 5 6 6 3 0 0 7 0 0 0 0 0 0 0 0 0 0 0 0 0 0 0 0 0 0 0 0 0 5 0 0 0 0 0 0 0 52 48 63 51 53 60 125
1 0 2 3 2 2 3 3 4 4 5 5 5 4 4 4 5 15 2 0 0 4 0 0 0 0 0 0 0 0 0 0 0 0 0 0 0 0 0 12 42 0 0 0 0 10 4 78 82 92 188 183 76 53
0 0 1 3 3 4 4 3 3 3 4 4 4 4 4 3 2 11 2 0 1 0 0 0 0 0 0 0 0 0 0 0 0 0 0 0 0 0 0 13 14 40 24 82 45 158 267 164 111 53 86 71 129 103
1 0 1 4 3 3 4 4 3 2 2 4 3 2 1 0 0 1 0 0 0 0 0 0 0 0 0 0 0 0 0 0 0 0 0 0 0 0 0 0 0 27 306 312 318 428 399 352 124 99 67 275 219 108
0 1 3 3 6 4 4 4 3 2 2 1 1 0 0 0 2 0 0 0 0 1 1 0 0 0 0 0 0 0 0 0 0 0 0 0 0 0 0 0 0 32 10 6 279 326 184 328 163 159 249 294 118 78
0 1 3 2 3 3 3 3 3 3 1 0 0 0 0 0 2 4 0 0 0 0 0 1 0 0 0 0 0 0 0 0 0 0 0 0 0 0 0 0 0 13 0 0 0 287 425 437 461 390 358 204 87 130
2 2 2 2 4 6 8 5 2 0 0 0 0 0 0 0 5 5 0 0 2 6 0 1 0 0 58 18 1 0 0 0 0 0 0 0 0 0 0 0 0 0 0 49 172 147 373 431 497 372 336 130 55 68
1 1 1 3 4 6 4 1 1 0 0 0 0 0 0 1 1 0 0 1 1 0 0 0 2 0 89 8 6 0 0 0 0 0 0 0 0 0 0 0 0 0 0 19 157 118 226 619 450 378 328 187 77 61
0 0 0 1 4 1 0 2 3 0 0 0 0 0 0 0 0 0 3 1 0 1 1 0 0 0 0 0 30 1 161 0 0 0 0 0 0 0 0 0 0 0 0 0 106 171 226 511 435 401 295 209 163 126
0 1 0 2 0 0 0 0 0 0 0 0 0 0 0 0 0 0 8 30 4 3 8 0 0 0 3 1 0 2 176 128 14 0 0 0 0 0 0 0 0 0 0 0 84 156 294 400 408 398 326 334 275 216
0 0 0 0 0 0 0 0 0 0 0 0 0 0 0 0 0 6 0 0 3 3 13 20 15 18 42 22 27 6 222 162 61 0 11 0 0 0 0 0 0 0 0 0 0 91 92 148 293 393 392 392 372 260
0 0 0 0 0 0 0 0 0 0 0 0 0 0 0 0 1 1 0 1 0 1 2 5 1 23 36 18 22 0 27 195 59 20 0 0 0 0 0 0 0 0 0 0 0 0 24 74 7 130 276 367 306 310
0 0 0 0 0 0 0 0 0 2 3 1 3 0 1 0 0 0 0 1 4 1 1 3 3 26 10 68 7 1 0 5 96 45 3 3 0 0 0 0 0 0 0 0 0 0 0 0 0 0 38 148 220 285
0 0 0 0 0 0 0 0 4 8 11 3 6 1 0 1 0 0 0 0 0 0 0 2 7 0 0 19 5 2 1 28 3 4 3 4 3 2 0 1 0 0 0 0 0 0 0 0 0 0 0 9 8 29
0 0 0 0 0 0 0 0 2 5 8 0 0 0 0 0 0 0 0 0 0 0 0 1 0 0 0 0 3 3 3 0 0 0 3 3 3 2 2 3 0 0 0 0 0 0 0 6 49 78 116 171 100 28
0 0 0 0 0 0 8 6 4 5 1 0 0 0 0 0 0 0 0 0 0 6 4 3 2 2 0 3 2 3 0 1 5 0 1 1 4 1 0 1 0 0 29 0 6 8 23 45 70 145 210 219 221 190
0 0 0 0 5 9 7 5 12 2 2 0 0 0 0 0 0 0 0 0 0 0 1 2 0 0 1 2 2 0 16 14 26 12 1 2 2 0 0 0 0 0 0 0 2 14 85 215 249 196 204 254 350 308
0 2 1 5 4 3 4 0 1 0 0 0 0 0 0 0 0 0 0 0 0 0 0 0 0 6 4 0 0 0 7 10 0 0 0 2 3 0 0 1 0 0 0 0 0 21 179 264 260 248 233 260 169 45
3 5 7 9 14 1 1 0 0 2 0 0 0 0 0 0 0 0 0 0 0 0 0 0 0 4 0 0 0 0 0 0 0 0 0 0 2 1 0 0 0 0 0 0 0 0 55 67 69 162 187 84 28 0
6 15 11 12 6 4 0 0 1 0 0 0 0 0 0 0 0 0 0 0 0 0 0 0 0 0 0 0 0 0 0 0 0 0 0 0 0 2 2 0 0 0 0 0 0 0 0 0 1 3 11 0 0 0
0 12 3 2 0 1 0 0 0 0 0 0 0 0 0 0 0 0 0 0 0 0 0 0 0 0 0 0 0 0 0 0 0 0 0 0 0 1 1 0 0 0 0 0 0 0 0 0 0 0 0 0 0 0
1 0 1 4 0 0 0 0 0 0 0 0 0 0 0 0 0 0 0 0 0 0 0 0 0 0 0 1 0 0 0 0 0 0 0 0 0 1 1 0 0 0 0 0 0 0 0 0 0 0 0 0 0 0
0 0 0 2 1 0 0 0 0 0 0 1 3 0 0 0 0 0 0 0 0 0 0 0 0 3 1 1 0 0 1 0 0 0 0 0 0 0 0 0 0 0 0 0 0 0 0 0 0 0 0 0 0 0
2 0 0 0 0 0 0 0 0 0 2 1 0 0 0 1 2 2 1 0 4 0 0 0 1 0 8 0 0 0 0 0 0 0 0 0 0 0 0 0 0 0 0 0 0 0 0 0 0 0 0 0 0 0
0 0 0 0 0 0 0 0 0 0 0 0 0 3 7 11 1 0 1 1 0 0 0 0 0 1 9 14 16 9 1 0 0 0 0 0 0 0 0 0 0 0 0 0 0 0 0 0 0 0 0 0 0 0
0 0 0 0 0 0 0 0 0 0 0 1 2 0 0 0 0 0 0 0 0 2 10 1 0 0 1 0 0 2 0 0 0 0 0 0 0 0 0 0 0 0 0 0 0 0 0 0 0 0 0 0 0 0
0 0 0 0 0 0 0 0 0 0 2 0 0 0 0 4 15 12 0 0 0 12 6 0 0 0 0 1 1 0 7 0 0 0 5 9 1 5 0 0 0 0 0 0 0 0 0 0 0 0 0 3 4 0
0 0 0 0 0 0 0 0 0 0 0 0 2 3 12 8 1 2 0 0 0 0 0 0 0 0 0 1 2 0 0 2 10 10 10 8 4 0 0 0 0 0 0 0 0 0 0 0 0 3 6 5 4 0
0 0 0 0 0 0 0 0 0 0 0 0 0 0 0 1 0 0 1 2 1 4 0 3 4 5 2 1 0 7 3 1 3 15 10 9 0 0 0 0 0 0 0 1 2 1 1 8 5 0 2 1 0 0
0 0 0 0 0 0 0 0 0 0 0 0 0 0 0 0 0 0 0 0 0 0 0 0 0 3 4 0 6 15 5 1 1 5 10 7 4 1 4 4 13 0 0 1 13 24 33 44 37 11 1 0 0 0
0 0 0 0 0 0 0 0 0 0 0 0 0 0 0 0 0 0 0 2 6 2 0 0 0 5 0 0 0 0 0 1 5 1 0 0 0 0 0 0 0 0 0 0 0 4 28 39 29 15 3 3 0 0
0 0 0 0 0 0 0 0 0 0 0 0 0 0 0 0 0 17 3 0 0 0 0 0 4 0 0 0 0 1 0 0 0 0 0 0 0 0 0 0 0 0 0 0 0 0 0 12 25 28 21 9 4 0
CIN
-0 -0 -0 -0 -0 -0 -0 -0 -0 -0 -0 -0 -0 -0 -0 -0 -0 -0 -0 -0 -0 -0 -0 -0 -0 -0 -0 -0 -0 -0 -0 -0 -0 -0 -0 -0 -0 -0 -0 -0 -0 -0 -32 -0 -0 -0 -28 -137 -218 -87 -119 -149 -261 -263
-0 -0 -0 -0 -0 -0 -0 -0 -0 -0 -0 -0 -0 -0 -0 -0 -0 -0 -0 -0 -0 -0 -0 -0 -0 -0 -0 -0 -0 -0 -0 -0 -0 -0 -0 -0 -0 -0 -0 -40 -0 -0 -0 -0 -0 -0 -0 -250 -133 -249 -297 -217 -297 -288
-0 -0 -0 -0 -0 -0 -0 -0 -0 -0 -0 -0 -0 -0 -0 -0 -0 -0 -0 -1 -0 -0 -0 -0 -0 -0 -0 -0 -0 -0 -0 -0 -0 -0 -0 -0 -0 -0 -0 -46 -94 -0 -0 -0 -18 -73 -100 -195 -270 -251 -287 -284 -395 -444
-0 -0 -0 -0 -0 -0 -0 -0 -0 -0 -0 -0 -0 -0 -0 -0 -0 -0 -0 -0 -0 -0 -0 -0 -0 -0 -0 -0 -0 -0 -0 -0 -0 -0 -0 -0 -0 -0 -0 -18 -39 -156 -199 -154 -130 -143 -206 -225 -298 -281 -335 -373 -324 -406
-0 -0 -0 -0 -0 -0 -0 -0 -0 -0 -0 -0 -0 -0 -0 -0 -0 -0 -0 -0 -0 -0 -0 -0 -0 -0 -0 -0 -0 -0 -0 -0 -0 -0 -0 -0 -0 -0 -0 -0 -0 -191 -101 -84 -37 -69 -61 -57 -221 -346 -262 -186 -264 -271
-0 -0 -0 -0 -0 -0 -0 -0 -0 -0 -0 -0 -0 -0 -0 -0 -1 -1 -0 -0 -0 -0 -0 -1 -0 -0 -0 -0 -0 -0 -0 -0 -0 -1 -0 -0 -0 -0 -0 -0 -0 -168 -261 -56 -101 -199 -231 -172 -251 -286 -200 -245 -332 -357
-0 -0 -0 -0 -0 -0 -0 -0 -0 -0 -0 -0 -0 -0 -0 -0 -0 -0 -0 -0 -0 -0 -0 -0 -0 -0 -0 -0 -0 -0 -0 -0 -0 -0 -0 -0 -0 -0 -0 -0 -0 -149 -0 -0 -0 -214 -100 -170 -94 -236 -242 -305 -412 -362
-0 -0 -0 -0 -0 -0 -0 -0 -0 -0 -0 -0 -0 -0 -0 -0 -0 -0 -0 -0 -1 -0 -0 -0 -0 -0 -41 -6 -3 -0 -0 -0 -0 -0 -0 -0 -0 -0 -0 -0 -0 -0 -0 -151 -170 -204 -90 -106 -166 -174 -270 -274 -297 -322
-0 -0 -0 -0 -0 -0 -0 -0 -0 -0 -0 -0 -0 -0 -0 -0 -0 -0 -0 -3 -11 -0 -0 -0 -2 -0 -42 -12 -24 -0 -0 -0 -0 -0 -0 -0 -0 -0 -0 -0 -0 -0 -0 -134 -178 -214 -171 -67 -95 -128 -150 -192 -254 -316
-0 -0 -0 -1 -0 -0 -0 -0 -0 -0 -0 -0 -0 -0 -0 -0 -0 -0 -2 -0 -0 -0 -0 -0 -2 -0 -0 -0 -0 -2 -35 -1 -0 -0 -5 -0 -0 -0 -0 -0 -0 -0 -0 -0 -119 -120 -157 -92 -113 -152 -109 -102 -107 -198
-0 -1 -0 -0 -0 -0 -0 -0 -0 -0 -0 -0 -0 -0 -0 -0 -0 -0 -6 -0 -13 -0 -1 -1 -0 -0 -5 -0 -1 -1 -7 -65 -11 -0 -26 -0 -0 -0 -0 -0 -0 -0 -0 -0 -123 -93 -76 -71 -99 -112 -116 -118 -120 -159
-0 -0 -0 -0 -0 -0 -0 -0 -0 -0 -0 -0 -0 -0 -0 -0 -0 -1 -0 -0 -4 -1 -0 -17 -6 -3 -11 -15 -36 -36 -3 -38 -9 -0 -47 -0 -0 -0 -0 -0 -0 -0 -0 -0 -5 -119 -130 -134 -100 -78 -96 -119 -116 -123
-0 -0 -0 -0 -0 -0 -0 -0 -0 -0 -0 -0 -0 -0 -0 -6 -0 -1 -0 -0 -0 -0 -0 -0 -0 -3 -17 -12 -2 -0 -32 -2 -75 -73 -0 -0 -0 -0 -0 -0 -0 -0 -0 -0 -0 -0 -111 -119 -213 -120 -106 -134 -131 -120
-0 -0 -0 -0 -0 -0 -0 -0 -0 -21 -27 -8 -3 -0 -0 -1 -0 -0 -0 -0 -0 -6 -0 -0 -2 -0 -41 -12 -27 -56 -0 -5 -1 -47 -36 -0 -0 -0 -0 -0 -0 -0 -0 -0 -0 -0 -0 -0 -0 -0 -183 -161 -151 -110
-0 -0 -0 -0 -0 -0 -0 -0 -15 -28 -15 -8 -0 -1 -0 -1 -0 -0 -0 -0 -0 -0 -0 -0 -2 -0 -7 -9 -3 -0 -21 -4 -0 -0 -0 -0 -0 -0 -0 -0 -0 -0 -0 -0 -0 -0 -0 -0 -0 -0 -0 -284 -271 -234
-0 -0 -0 -0 -0 -0 -0 -0 -9 -23 -11 -2 -2 -0 -0 -0 -0 -0 -0 -0 -0 -3 -0 -1 -2 -0 -1 -0 -0 -0 -0 -0 -0 -0 -0 -0 -0 -0 -0 -0 -0 -0 -0 -0 -0 -164 -0 -275 -210 -213 -256 -224 -225 -273
-0 -0 -0 -0 -0 -19 -32 -27 -25 -13 -4 -1 -0 -0 -0 -0 -0 -0 -0 -0 -0 -3 -0 -1 -0 -0 -0 -1 -0 -0 -0 -0 -0 -0 -0 -0 -0 -0 -0 -0 -0 -0 -577 -0 -417 -358 -289 -284 -274 -227 -164 -236 -254 -274
-0 -0 -0 -0 -33 -31 -30 -28 -12 -7 -2 -0 -0 -0 -0 -0 -0 -0 -0 -0 -0 -0 -7 -0 -1 -0 -0 -0 -0 -2 -3 -2 -1 -0 -0 -0 -0 -0 -0 -0 -0 -0 -0 -0 -463 -390 -273 -178 -152 -184 -234 -289 -280 -335
-0 -16 -21 -24 -25 -23 -15 -0 -7 -2 -0 -0 -0 -0 -0 -0 -0 -0 -0 -0 -0 -0 -0 -0 -0 -6 -5 -0 -0 -0 -17 -14 -0 -0 -7 -0 -0 -0 -0 -0 -0 -0 -0 -0 -0 -296 -262 -159 -160 -223 -277 -282 -305 -456
-11 -14 -18 -16 -14 -14 -3 -0 -0 -5 -0 -0 -0 -0 -0 -0 -0 -0 -0 -0 -0 -0 -0 -0 -12 -16 -0 -0 -0 -0 -0 -0 -0 -0 -0 -0 -0 -0 -0 -0 -0 -0 -0 -0 -0 -0 -387 -328 -339 -286 -275 -331 -398 -0
-4 -7 -7 -13 -19 -22 -1 -5 -11 -4 -0 -0 -0 -0 -0 -0 -0 -0 -0 -0 -0 -0 -0 -0 -0 -0 -0 -0 -0 -0 -0 -0 -0 -0 -0 -0 -0 -0 -0 -0 -0 -0 -0 -0 -0 -0 -0 -4 -423 -419 -400 -0 -0 -0
-0 -10 -23 -20 -0 -12 -1 -0 -0 -0 -0 -0 -0 -0 -0 -0 -0 -0 -0 -0 -0 -0 -0 -0 -0 -0 -0 -0 -0 -0 -0 -0 -0 -0 -0 -0 -0 -0 -0 -0 -0 -0 -0 -0 -0 -0 -0 -0 -0 -0 -0 -0 -0 -0
-13 -0 -23 -10 -1 -1 -0 -0 -0 -0 -0 -0 -0 -0 -0 -0 -0 -0 -0 -0 -0 -0 -0 -0 -0 -0 -0 -49 -0 -0 -0 -0 -0 -0 -0 -0 -0 -0 -0 -0 -0 -0 -0 -0 -0 -0 -0 -0 -0 -0 -0 -0 -0 -0
-0 -1 -2 -1 -0 -0 -0 -0 -0 -0 -0 -2 -3 -0 -0 -4 -36 -0 -0 -0 -0 -0 -0 -0 -0 -54 -62 -35 -0 -0 -19 -8 -0 -0 -0 -0 -0 -0 -0 -0 -0 -0 -0 -0 -0 -0 -0 -0 -0 -0 -0 -0 -0 -0
-1 -0 -0 -0 -0 -0 -0 -0 -0 -4 -7 -4 -0 -0 -0 -10 -0 -0 -0 -1 -8 -0 -0 -0 -52 -0 -41 -16 -1 -29 -3 -2 -0 -0 -0 -0 -0 -0 -0 -0 -0 -0 -0 -0 -0 -0 -0 -0 -0 -0 -0 -0 -0 -0
-0 -0 -0 -0 -0 -0 -0 -0 -0 -5 -0 -0 -1 -1 -3 -0 -0 -0 -0 -1 -1 -6 -0 -0 -0 -37 -41 -39 -19 -22 -48 -54 -0 -0 -0 -0 -0 -0 -0 -1 -0 -0 -0 -0 -0 -0 -0 -0 -0 -0 -0 -0 -0 -0
-0 -0 -0 -0 -0 -0 -0 -0 -0 -0 -0 -2 -6 -0 -0 -0 -0 -0 -0 -22 -0 -8 -20 -48 -0 -41 -39 -8 -39 -54 -0 -0 -0 -0 -0 -0 -0 -0 -0 -5 -0 -0 -0 -0 -0 -0 -0 -0 -0 -0 -0 -0 -0 -0
-0 -0 -0 -0 -0 -0 -0 -0 -0 -0 -0 -0 -0 -0 -0 -6 -2 -13 -3 -0 -0 -51 -54 -11 -3 -0 -0 -39 -79 -69 -47 -23 -0 -0 -48 -50 -54 -44 -21 -0 -0 -0 -0 -0 -0 -0 -0 -0 -0 -0 -7 -69 -80 -0
-0 -0 -0 -0 -0 -0 -0 -26 -0 -0 -0 -6 -11 -8 -6 -21 -11 -49 -0 -0 -0 -1 -30 -33 -14 -0 -57 -68 -48 -0 -13 -68 -21 -8 -6 -14 -14 -1 -0 -0 -0 -0 -0 -0 -0 -0 -0 -0 -4 -38 -65 -74 -105 -0
-0 -0 -0 -0 -0 -0 -0 -0 -0 -0 -0 -0 -0 -0 -0 -38 -0 -0 -34 -29 -64 -59 -52 -105 -106 -81 -20 -20 -0 -53 -114 -68 -24 -17 -12 -7 -1 -0 -0 -22 -0 -0 -0 -34 -28 -18 -29 -25 -37 -0 -45 -50 -0 -0
-0 -0 -0 -0 -0 -0 -0 -0 -0 -0 -0 -0 -0 -0 -13 -0 -11 -0 -0 -0 -0 -0 -0 -0 -0 -89 -72 -0 -38 -42 -42 -22 -65 -76 -54 -52 -58 -33 -54 -30 -76 -0 -0 -17 -50 -40 -38 -44 -50 -54 -65 -0 -0 -0
-0 -0 -0 -0 -0 -0 -0 -0 -0 -0 -0 -0 -0 -0 -0 -0 -0 -0 -0 -49 -37 -39 -0 -0 -0 -52 -0 -0 -0 -0 -0 -73 -100 -82 -0 -0 -0 -0 -0 -0 -0 -0 -0 -5 -10 -55 -43 -42 -39 -39 -38 -35 -0 -0
-2 -0 -0 -0 -0 -0 -0 -0 -0 -0 -0 -0 -0 -0 -0 -0 -2 -18 -53 -0 -0 -0 -0 -0 -48 -0 -0 -0 -0 -54 -0 -0 -0 -0 -0 -0 -0 -0 -0 -0 -0 -0 -0 -0 -0 -0 -0 -35 -33 -30 -33 -41 -51 -25
Wind_Speed
32 34 35 36 36 36 36 37 37 37 36 36 37 37 37 36 35 32 31 26 30 33 37 34 32 34 36 33 34 31 31 23 26 24 21 19 17 18 22 21 13 6 11 23 23 24 28 8 13 15 19 18 15 4
31 33 35 35 36 36 36 36 36 37 36 35 35 35 35 36 35 31 30 28 30 34 39 38 42 38 39 41 40 31 30 29 23 24 23 22 19 17 19 19 17 26 7 15 12 24 22 4 22 17 21 17 13 3
32 33 35 35 35 36 37 37 37 36 35 35 34 34 34 34 33 32 32 31 33 39 45 38 31 26 29 32 31 39 33 28 26 21 25 25 23 18 15 22 20 21 17 29 23 22 32 6 18 17 13 16 11 7
31 32 33 34 36 36 36 37 36 35 34 34 33 33 33 33 33 31 32 28 29 35 46 45 30 33 32 34 35 37 43 41 36 35 32 29 26 22 20 22 21 18 12 18 25 27 25 26 18 15 17 14 12 7
31 31 33 34 36 36 36 35 35 34 34 33 33 32 32 33 34 34 34 31 24 27 42 48 48 55 46 44 46 47 43 39 40 36 34 33 28 24 23 21 21 18 17 16 25 10 20 24 7 10 15 10 7 7
30 31 32 33 34 35 35 34 34 34 33 33 33 32 32 33 34 33 31 24 19 17 33 41 36 49 50 44 50 52 48 43 41 35 35 34 37 26 22 22 24 21 20 21 22 11 18 14 8 4 5 4 9 11
31 31 32 33 34 33 33 33 32 33 33 33 33 32 33 33 29 25 25 22 14 21 30 38 39 33 34 39 41 47 46 42 41 41 45 40 29 26 26 24 22 22 23 25 20 10 14 5 6 1 8 8 9 9
30 31 32 32 32 32 32 32 31 32 33 33 33 34 35 37 28 24 18 11 12 24 20 29 37 38 25 33 37 34 42 43 43 44 37 42 35 31 33 29 19 19 21 23 22 10 18 7 5 1 8 6 8 6
29 30 30 31 31 30 30 30 30 30 31 31 33 38 28 20 17 16 15 17 5 9 17 22 33 36 24 24 28 33 37 44 39 50 47 35 39 39 33 30 26 24 20 23 23 23 18 5 5 1 2 3 5 5
28 29 29 29 29 29 29 28 29 28 28 30 25 22 20 16 20 34 20 11 5 5 2 23 32 39 34 36 29 28 33 43 48 48 36 49 50 41 34 32 32 29 25 20 22 19 13 9 10 11 7 3 3 2
28 27 27 27 27 26 25 25 25 27 24 23 22 18 22 32 20 13 7 8 7 6 7 21 23 28 30 33 31 28 30 37 46 46 48 45 51 44 41 40 37 36 31 29 29 22 9 12 11 13 11 10 12 10
25 25 25 24 22 22 22 21 21 21 19 20 23 25 19 17 16 18 9 12 12 6 8 22 23 23 27 26 24 25 31 33 40 37 44 49 41 39 38 38 37 33 36 36 31 27 21 16 12 18 7 9 16 20
23 22 21 20 19 19 18 18 18 17 20 20 18 16 15 16 18 18 17 17 16 23 26 26 27 24 24 24 23 24 32 32 31 37 44 40 35 35 37 39 40 36 34 36 37 33 27 24 24 22 8 19 21 22
19 19 17 17 16 15 16 16 18 19 18 17 18 18 14 18 15 17 20 26 29 15 29 22 23 23 23 22 22 25 32 22 32 35 36 32 33 34 34 35 38 40 35 37 37 36 33 30 28 29 27 13 31 29
16 16 15 15 13 12 13 15 16 17 16 15 16 15 12 19 24 21 20 20 24 27 29 23 19 21 23 21 17 25 28 31 18 24 25 29 32 33 34 35 38 40 39 38 36 35 30 26 20 22 23 21 29 25
13 14 14 15 15 14 14 15 16 16 15 15 13 15 14 25 27 25 22 20 22 26 25 19 18 19 21 21 16 23 23 22 20 22 28 30 27 28 28 29 34 38 40 41 36 27 20 16 13 12 15 20 20 17
13 14 16 17 15 15 15 15 16 15 14 14 13 13 23 28 29 29 27 25 23 9 18 18 17 18 19 21 21 18 20 21 22 23 26 26 26 23 23 24 26 32 38 37 32 25 19 16 14 13 13 18 17 18
14 16 15 16 16 15 15 15 16 15 14 11 13 16 24 27 27 27 26 25 24 6 20 18 18 17 18 21 25 24 23 21 19 19 21 21 18 18 18 19 21 22 25 27 27 22 19 16 15 15 14 12 11 11
14 14 15 15 15 15 15 14 14 14 11 10 13 21 24 26 27 26 26 26 26 20 22 19 18 17 17 19 22 24 25 25 22 19 20 18 16 16 17 16 15 17 19 23 24 23 20 17 15 14 14 14 12 11
15 15 15 15 15 16 15 13 13 11 10 8 9 15 21 23 26 26 25 25 23 21 19 18 19 19 20 22 23 25 25 25 24 22 19 18 17 16 17 15 14 13 16 18 20 20 20 17 15 14 15 15 14 15
14 14 15 15 15 15 14 14 12 11 9 9 9 13 17 20 22 23 23 19 21 21 22 21 24 25 24 25 26 25 25 26 25 23 17 16 17 18 17 15 14 12 13 16 20 19 19 19 17 15 15 15 13 11
14 14 15 15 16 15 13 12 12 10 11 8 10 6 15 17 19 19 20 19 19 20 21 24 25 26 27 26 25 23 23 22 22 23 22 18 14 12 15 14 13 12 12 13 16 17 17 17 16 13 13 12 10 8
13 15 15 15 15 14 13 14 13 13 12 7 11 11 12 15 18 21 19 18 18 20 23 24 26 24 22 20 20 22 21 20 20 20 20 20 18 19 12 8 10 12 11 11 11 13 13 13 12 12 12 10 10 9
14 16 15 15 13 13 13 14 13 12 11 9 11 12 11 10 13 20 20 20 20 23 23 23 22 20 20 20 20 19 20 20 20 19 17 16 15 14 13 11 11 14 14 10 13 11 10 10 9 10 11 10 9 9
16 15 15 15 14 14 13 12 12 12 10 10 11 11 10 8 10 9 9 12 20 21 21 20 18 18 18 18 17 19 19 18 17 16 15 16 17 13 9 9 8 13 13 16 15 10 12 11 12 10 11 9 8 8
15 14 13 15 15 14 14 11 12 12 13 13 12 12 10 9 12 11 10 9 7 19 19 18 17 16 17 18 19 21 19 19 17 14 13 13 13 13 12 9 8 9 12 12 15 12 15 18 14 17 15 13 13 12
14 16 15 17 17 18 18 16 15 15 15 14 12 12 10 6 8 8 5 5 3 8 16 17 16 16 16 17 16 15 16 15 13 13 14 11 12 12 11 11 11 11 9 5 13 11 8 7 8 12 9 9 11 11
13 15 15 15 18 18 18 16 15 14 14 14 12 12 12 8 8 8 4 4 6 9 14 15 13 14 15 15 15 14 14 14 10 7 9 9 10 10 8 9 8 9 10 9 3 2 7 4 6 9 6 6 5 7
13 15 14 17 16 16 17 16 16 16 15 16 16 14 14 9 15 8 3 5 5 7 11 14 11 10 14 15 14 14 13 12 11 10 10 10 11 10 10 10 10 8 7 7 8 8 7 6 7 4 3 3 3 4
16 20 14 15 15 17 17 19 17 17 18 16 18 18 15 5 14 8 14 16 16 12 10 12 11 8 9 12 12 13 12 12 12 9 7 11 13 12 11 11 12 10 6 5 5 4 4 4 6 9 9 8 9 9
17 17 18 19 19 20 22 21 21 20 20 20 11 3 20 20 19 18 23 21 18 18 18 18 18 17 13 12 12 13 12 13 12 12 10 9 9 8 9 11 12 10 8 8 6 6 7 8 8 9 9 8 8 9
20 20 21 20 21 22 22 22 22 22 22 20 22 22 23 24 23 20 21 21 19 19 19 20 18 17 16 16 14 12 12 11 10 10 10 10 11 11 9 9 10 10 9 9 9 10 10 10 10 9 7 7 7 9
16 17 17 17 18 17 18 18 19 20 20 21 21 21 20 19 18 18 18 18 19 19 19 18 17 16 15 15 15 14 14 13 12 12 13 13 14 15 15 15 15 14 14 13 13 13 13 13 12 11 11 11 11 12
Wind_Direction
330 330 332 333 333 334 334 335 335 336 336 336 337 338 338 337 337 337 326 329 316 302 298 296 291 284 281 282 277 281 281 282 279 279 277 276 282 288 290 281 287 218 250 263 267 266 258 320 281 271 253 280 291 152
329 330 331 331 332 333 334 334 334 334 334 335 336 336 336 336 337 339 325 327 321 300 292 298 290 284 276 274 274 273 266 275 280 278 279 277 279 287 287 282 281 247 226 259 266 268 279 116 265 274 262 288 296 89
327 328 328 330 332 332 333 332 332 332 333 332 332 333 333 334 334 333 323 323 317 304 299 293 294 294 283 272 268 263 263 262 270 284 278 271 273 276 281 273 280 273 266 253 267 274 244 235 281 268 293 301 313 327
327 327 328 329 330 331 331 332 332 332 332 332 331 331 330 330 330 330 323 321 315 307 293 295 299 286 281 274 266 259 257 257 263 268 271 268 267 267 274 271 274 276 261 266 267 264 264 264 273 274 284 301 318 339
326 327 327 328 329 329 330 331 332 332 331 331 330 329 329 328 328 325 319 315 305 300 296 293 295 279 274 269 260 255 253 251 253 256 255 257 263 266 266 268 268 268 268 261 262 280 266 261 178 263 280 302 332 335
325 326 327 328 328 329 330 331 331 331 330 330 329 328 327 326 327 328 324 329 328 311 307 298 299 288 275 270 257 250 247 244 244 248 250 253 250 264 262 262 260 260 263 261 269 271 276 281 280 272 290 334 313 310
324 326 327 328 329 330 330 330 330 331 331 329 328 326 323 322 322 320 319 325 334 331 313 302 295 296 293 278 263 247 241 237 238 241 242 243 248 255 259 255 255 254 257 255 267 267 272 287 288 236 299 314 321 323
325 326 328 329 330 330 331 331 331 331 331 330 328 325 321 316 317 316 315 298 295 314 316 305 298 296 297 277 258 248 235 230 233 235 240 236 245 249 249 245 253 253 262 257 257 201 260 287 266 278 303 346 340 344
326 328 329 330 331 332 333 333 333 333 332 332 330 322 328 338 341 346 347 342 340 331 328 315 298 281 292 275 277 248 232 227 231 230 232 235 235 239 241 239 242 249 260 257 259 256 257 180 183 150 327 18 8 4
328 329 330 333 334 334 335 337 338 339 338 337 342 345 344 356 341 316 347 8 16 343 251 288 251 253 267 261 265 252 235 226 223 226 228 232 234 238 237 239 241 245 255 261 260 255 248 202 160 140 135 99 60 21
330 331 333 334 336 339 341 343 346 346 351 354 350 350 338 320 341 2 104 115 83 143 153 234 223 227 243 248 254 242 233 225 221 223 224 230 231 235 237 238 242 243 250 252 250 250 218 188 178 154 249 254 255 250
334 336 337 339 341 343 346 350 353 357 359 353 341 334 352 359 350 256 119 212 187 140 214 283 262 234 241 226 250 238 229 223 222 224 223 229 232 237 239 239 242 248 245 241 245 248 249 234 180 159 205 238 248 240
337 339 343 345 348 352 355 358 358 0 353 353 353 0 9 343 263 263 272 251 247 286 280 276 277 248 241 216 248 234 222 222 236 223 224 229 235 240 241 241 241 246 248 239 234 236 239 236 238 243 233 248 242 239
344 347 349 353 355 0 3 4 1 357 0 2 349 340 360 284 293 297 280 295 296 253 291 271 259 244 244 239 231 228 217 236 223 222 225 236 241 242 243 243 240 237 241 233 232 230 232 232 236 237 242 243 228 232
352 355 1 2 9 14 15 10 5 4 9 3 346 348 359 296 259 247 261 270 285 289 292 264 265 248 240 237 246 228 223 225 242 225 242 252 249 246 244 244 240 235 234 229 229 227 231 235 240 241 240 238 226 233
11 17 22 21 22 29 27 19 11 10 8 358 358 347 345 285 267 268 266 269 286 301 296 288 265 245 233 235 240 223 230 237 246 259 259 257 254 250 247 247 242 236 231 227 228 233 231 227 221 224 233 235 237 241
35 29 26 33 45 45 42 27 17 12 8 3 4 352 248 254 259 272 281 274 286 258 293 280 256 248 244 233 227 237 248 264 276 274 272 265 253 256 253 253 248 240 230 229 231 233 224 223 218 221 231 242 245 246
37 36 47 56 60 56 46 36 21 14 14 25 5 344 300 273 255 262 275 282 298 94 298 293 280 255 245 240 240 256 266 275 255 257 270 268 257 259 262 260 251 242 231 226 225 223 214 211 219 228 227 230 232 237
38 47 55 53 56 58 53 55 51 29 39 30 225 249 267 265 261 250 255 267 282 254 289 293 274 255 256 265 272 269 272 275 273 276 275 285 274 269 264 264 257 242 231 222 218 217 216 211 215 218 221 226 229 236
39 49 54 55 51 47 52 70 74 91 99 111 181 228 261 262 271 269 257 276 274 274 281 283 280 284 279 292 284 279 274 273 273 276 282 290 279 269 262 261 254 246 231 223 216 216 216 215 219 218 223 223 222 228
25 43 48 49 42 48 56 64 81 91 120 119 190 240 251 271 279 286 284 307 276 274 275 296 283 281 298 297 287 286 290 277 264 253 263 268 275 259 256 254 252 247 233 224 216 217 216 217 218 218 216 219 218 218
13 36 40 44 35 52 77 93 90 86 89 139 232 174 241 268 285 298 315 302 296 298 305 288 285 283 289 296 298 295 303 303 299 282 271 265 271 278 257 252 245 243 237 229 220 217 220 225 222 213 207 207 208 211
28 12 18 32 38 57 78 70 79 84 94 146 241 220 210 246 281 305 301 308 307 309 309 306 303 309 304 311 325 312 310 304 296 287 282 278 273 261 242 259 253 246 239 228 225 225 224 225 215 209 210 211 212 216
349 345 353 15 55 71 70 72 89 88 100 161 230 220 205 196 244 312 296 302 304 299 303 304 307 307 307 311 315 316 312 310 302 305 310 296 271 275 267 268 270 250 242 228 224 220 217 228 217 212 220 218 223 227
334 331 336 349 18 44 88 109 107 109 142 223 197 190 173 160 105 134 168 227 275 279 289 296 308 312 314 312 313 311 318 323 304 296 305 311 292 264 286 281 278 253 248 231 221 206 220 229 236 222 246 248 229 233
332 329 332 328 337 16 8 67 167 210 233 199 196 225 200 154 119 112 120 104 178 274 279 276 291 301 309 311 306 310 298 301 310 301 312 319 323 288 264 292 273 279 264 247 243 242 253 245 251 250 258 260 260 257
331 310 307 288 299 294 257 233 229 230 234 223 219 228 204 201 137 114 263 89 134 192 250 239 244 247 277 290 282 272 270 290 306 312 323 334 325 320 324 281 287 292 300 260 239 232 236 237 237 241 230 224 241 253
328 298 297 296 275 257 238 242 234 241 252 233 222 248 259 214 136 99 100 83 268 250 173 169 185 215 238 245 251 246 232 260 296 295 349 349 337 341 339 343 350 6 23 29 20 268 245 263 259 257 251 258 268 270
299 284 289 254 257 245 229 217 223 227 222 278 272 244 249 304 65 114 171 273 236 202 193 168 168 190 261 264 276 287 277 279 300 312 320 330 322 312 302 306 290 318 25 32 23 17 6 31 59 53 8 352 333 338
249 156 270 264 261 252 245 202 229 225 233 212 245 251 235 73 65 233 287 305 314 297 261 279 279 258 277 309 297 298 300 294 294 291 321 297 289 275 277 283 267 282 293 325 8 27 35 355 331 314 314 318 308 310
242 209 234 247 258 256 250 255 258 260 258 269 284 88 281 287 344 13 343 321 306 313 318 319 327 329 291 278 292 306 316 310 294 297 286 305 311 311 293 278 258 275 282 277 295 323 326 319 326 331 323 320 314 309
220 197 227 235 245 256 267 274 276 282 296 307 302 307 304 308 313 346 327 330 324 315 305 313 343 323 313 307 312 297 302 299 313 318 307 295 299 299 290 279 274 281 292 300 313 316 322 322 326 333 335 326 328 326
189 202 209 224 228 228 235 248 244 265 300 302 301 306 318 328 326 302 313 338 335 327 323 329 348 343 327 316 311 315 308 305 306 307 308 312 311 305 300 297 297 295 292 295 299 302 301 306 313 312 309 312 314 317